Airfield :
LOGIN :

Register | Disclaimer

   EN    FR    IT 

 










Legend :    VFR   Marginal VFR   IFR   Intensive IFR   Very Intensive IFR
Visi :
Ceiling :
>= 8 km
>= 3000ft
5 to 8 km
1000 to 3000 ft
1500m to 5 km
500 to 1000 ft
800 to 1500m
200 to 500 ft
< 800m
< 200 ft
Symbols :   Thunderstorms  Fog  Heavy snow  Heavy precipitations  Wind > 20 kt
SIGMETs :     Misc.  Thunderstorms  Icing  Turbulence  Mountain Waves  Volcanic Ashes







- Airport Elevation : 162 ft
- IATA code : BOD
- Download approach charts


LFBD - Bordeaux / Merignac

CURRENT METAR :
  • 252300Z AUTO 03006KT CAVOK 01/M05 Q1016 NOSIG

EXPIRED METARs :
  • 252230Z AUTO 01007KT CAVOK 01/M05 Q1017 NOSIG
  • 252200Z AUTO 02005KT CAVOK 02/M05 Q1016 NOSIG
  • 252130Z AUTO 03008KT CAVOK 02/M05 Q1016 NOSIG
  • 252100Z AUTO 03009KT CAVOK 03/M05 Q1016 NOSIG
  • 252030Z AUTO 02008KT CAVOK 03/M05 Q1016 NOSIG

TAF TAF LFBD
Valid from the 25 at 18:00 until the 27 at 00:00 UTC


251700Z 2518/2624 01010KT CAVOK
TEMPO 2612/2618 03015G25KT TX04/2614Z TNM04/2606Z
ATIS : +33 5 57 92 81 04
No reported NOTAMs for that airfield.



MET'MAP, your aeronautical weather chart ! - Copyright ORBIFLY December 2007 - Disclaimer

ORBIFLY MET'MAP TEAM :

Programming & Development : Alexandra Zaïnal
Concept & Development : Baudouin d'Aumeries
Co-Development & Prog : Marc-Olivier Méhu
Technical & hardware support : Manuel Goepfert

Contact : metmap@orbifly.com




SOURCES & CREDITS :

   NOAA